sat.trackr.live / text

‹ back to catalog

STARLINK-4186

NORAD 52880 · 2022-062BC

PAYLOAD ACTIVE UNKNOWN

§ Identity

Operator
Country
US
Launch date
2022-06-17
Launch site
AFETR
Launch vehicle
Mass (kg)
RCS (m²)

Purposes: comms

External: N2YO · Heavens-Above · Gunter

§ Orbital elements

Epoch: 2026-05-25T02:14:49.358976Z

Period
95.44 min
Inclination
53.2129°
Eccentricity
0.0001197
Mean motion
15.08836983 rev/d
Perigee alt
538.9 km
Apogee alt
540.6 km
Semi-major
6,917.9 km
B*
-9.7205e-6
RAAN
31.1311°
Arg perigee
76.3014°
Mean anomaly
283.8111°
Rev number
21,760

§ Raw data

STARLINK-41861 52880U 22062BC  26145.09362684 -.00000443  00000+0 -97205-5 0  99912 52880  53.2129  31.1311 0001197  76.3014 283.8111 15.08836983217607

JSON: /api/v1/satellites/52880 · /tle

For live sub-satellite position, see the globe view (requires WebGL).

§ Visibility from observer

Set your observer location to see the next 7 days of passes ≥ 10°. The values pass through the URL so the page stays shareable.

No JS? Fill the form by hand. The geolocation button needs JavaScript.